Fort Yukon, AK

12:58 AM AKDT on May 29, 2017 (GMT -0800)
Fort Yukon

Weather History for PFYU - January, 2015

Change the Weather History Date:

Tuesday, January 27, 2015

  Actual Average Record
Temperature  
Mean Temperature -45 °F -  
Max Temperature -41 °F -7 °F 16 °F (2016)
Min Temperature -49 °F -19 °F -56 °F (2006)
Degree Days  
Heating Degree Days 110    
Moisture  
Dew Point -    
Average Humidity    
Maximum Humidity    
Minimum Humidity    
Precipitation  
Precipitation 0.00 in - - ()
Sea Level Pressure  
Sea Level Pressure 30.30 in    
Wind  
Wind Speed 0 mph (North)    
Max Wind Speed 0 mph    
Max Gust Speed -    
Visibility 3 miles    
Events Fog    
Averages and records for this station are not official NWS values.
T = Trace of Precipitation, MM = Missing Value Source: NWS Daily Summary

Daily Weather History Graph

Daily Weather History Graph

Search for Another Location

Airport or City:

Trip Planner

Search our weather history database for the weather conditions in past years. The results will help you decide how hot, cold, wet, or windy it might be!

Date:

Astronomy

Jan. 27, 2015 Rise Set
Actual Time 10:00 AM AKST 3:47 PM AKST
Civil Twilight 8:51 AM AKST 4:57 PM AKST
Nautical Twilight 7:43 AM AKST 6:04 PM AKST
Astronomical Twilight 6:42 AM AKST 7:06 PM AKST
Moon 10:51 AM AKST (1/27) 2:57 AM AKST (1/27)
Length of Visible Light 8h 06m
Length of Day
5h 46m
First Quarter, 57% of the Moon is Illuminated
Jan 27
First Quarter
Feb 3
Full
Feb 11
Last Quarter
Feb 18
New
Feb 25
First Quarter

Hourly Weather History & Observations

Time (AKST) Temp. Dew Point Humidity Pressure Visibility Wind Dir Wind Speed Gust Speed Precip Events Conditions
12:16 AM -45.4 °F - N/A% 30.17 in 0.8 mi Calm Calm - N/A   Unknown
12:36 AM -45.4 °F - N/A% 30.19 in 1.2 mi Calm Calm - N/A   Clear
12:56 AM -47.2 °F - N/A% 30.19 in 1.2 mi Calm Calm - N/A   Clear
1:16 AM -47.2 °F - N/A% 30.19 in 4.0 mi Calm Calm - N/A   Clear
1:36 AM -47.2 °F - N/A% 30.19 in 9.0 mi Calm Calm - N/A   Clear
1:56 AM -47.2 °F - N/A% 30.19 in 3.0 mi Calm Calm - N/A   Clear
2:16 AM -47.2 °F - N/A% 30.19 in 2.0 mi Calm Calm - N/A   Clear
2:36 AM -47.2 °F - N/A% 30.20 in 1.8 mi Calm Calm - N/A   Clear
2:56 AM -47.2 °F - N/A% 30.20 in 3.0 mi Calm Calm - N/A   Clear
3:16 AM -47.2 °F - N/A% 30.20 in 1.2 mi Calm Calm - N/A   Clear
3:36 AM -47.2 °F - N/A% 30.20 in 2.0 mi Calm Calm - N/A   Clear
3:56 AM -47.2 °F - N/A% 30.20 in 1.2 mi Calm Calm - N/A   Clear
4:16 AM -47.2 °F - N/A% 30.21 in 1.0 mi Calm Calm - N/A   Clear
4:36 AM -49.0 °F - N/A% 30.21 in 3.0 mi Calm Calm - N/A   Clear
4:56 AM -49.0 °F - N/A% 30.21 in 2.5 mi Calm Calm - N/A   Clear
5:16 AM -47.2 °F - N/A% 30.21 in 1.0 mi Calm Calm - N/A   Clear
5:36 AM -47.2 °F - N/A% 30.22 in 0.8 mi Calm Calm - N/A   Mostly Cloudy
5:56 AM -49.0 °F - N/A% 30.22 in 2.0 mi Calm Calm - N/A   Clear
6:16 AM -47.2 °F - N/A% 30.23 in 2.5 mi Calm Calm - N/A   Clear
6:56 AM -47.2 °F - N/A% 30.23 in 10.0 mi Calm Calm - N/A   Clear
7:16 AM -47.2 °F - N/A% 30.24 in 8.0 mi Calm Calm - N/A   Clear
7:29 AM - - N/A% 30.24 in 2.5 mi Calm Calm - N/A   Clear
7:36 AM -47.2 °F - N/A% 30.24 in 2.0 mi Calm Calm - N/A   Clear
7:56 AM -47.2 °F - N/A% 30.25 in 2.5 mi Calm Calm - N/A   Clear
8:04 AM - - N/A% 30.24 in 1.8 mi Calm Calm - N/A   Clear
8:16 AM -47.2 °F - N/A% 30.25 in 1.2 mi Calm Calm - N/A   Clear
8:36 AM -49.0 °F - N/A% 30.26 in 1.8 mi Calm Calm - N/A   Clear
8:47 AM - - N/A% 30.24 in 3.0 mi Calm Calm - N/A   Clear
8:56 AM -49.0 °F - N/A% 30.26 in 3.0 mi Calm Calm - N/A   Clear
8:58 AM - - N/A% 30.26 in 2.0 mi Calm Calm - N/A   Clear
9:08 AM - - N/A% 30.27 in 1.0 mi Calm Calm - N/A   Clear
9:14 AM - - N/A% 30.26 in 0.8 mi Calm Calm - N/A   Clear
9:16 AM -47.2 °F - N/A% 30.26 in 0.8 mi Calm Calm - N/A   Unknown
9:30 AM - - N/A% 30.27 in 0.5 mi Calm Calm - N/A Fog Light Freezing Fog
9:36 AM -47.2 °F - N/A% 30.28 in 0.5 mi Calm Calm - N/A   Scattered Clouds
9:56 AM -47.2 °F - N/A% 30.29 in 0.2 mi Calm Calm - N/A   Mostly Cloudy
10:04 AM - - N/A% 30.29 in 0.5 mi Calm Calm - N/A Fog Light Freezing Fog
10:12 AM - - N/A% 30.29 in 1.0 mi Calm Calm - N/A   Partly Cloudy
10:16 AM -47.2 °F - N/A% 30.29 in 1.0 mi Calm Calm - N/A   Partly Cloudy
10:19 AM - - N/A% 30.29 in 3.0 mi Calm Calm - N/A   Clear
10:36 AM -49.0 °F - N/A% 30.30 in 10.0 mi Calm Calm - N/A   Clear
10:56 AM -47.2 °F - N/A% 30.30 in 10.0 mi Calm Calm - N/A   Clear
11:16 AM -47.2 °F - N/A% 30.30 in 10.0 mi Calm Calm - N/A   Clear
11:36 AM -45.4 °F - N/A% 30.30 in 10.0 mi Calm Calm - N/A   Clear
11:56 AM -45.4 °F - N/A% 30.30 in 10.0 mi Calm Calm - N/A   Clear
12:16 PM -45.4 °F - N/A% 30.32 in 10.0 mi Calm Calm - N/A   Clear
12:36 PM -43.6 °F - N/A% 30.32 in 10.0 mi Calm Calm - N/A   Clear
12:39 PM - - N/A% 30.32 in 1.8 mi Calm Calm - N/A   Clear
12:48 PM - - N/A% 30.32 in 0.8 mi Calm Calm - N/A   Clear
12:56 PM -43.6 °F - N/A% 30.32 in 0.8 mi Calm Calm - N/A   Partly Cloudy
1:03 PM - - N/A% 30.33 in 1.0 mi Calm Calm - N/A   Clear
1:16 PM -43.6 °F - N/A% 30.33 in 1.0 mi Calm Calm - N/A   Partly Cloudy
1:33 PM - - N/A% 30.33 in 0.8 mi Calm Calm - N/A   Clear
1:36 PM -43.6 °F - N/A% 30.33 in 0.8 mi Calm Calm - N/A   Partly Cloudy
1:56 PM -41.8 °F - N/A% 30.33 in 0.5 mi Calm Calm - N/A   Partly Cloudy
2:16 PM -41.8 °F - N/A% 30.33 in 0.5 mi Calm Calm - N/A   Partly Cloudy
2:21 PM - - N/A% 30.33 in 0.2 mi Calm Calm - N/A Fog Light Freezing Fog
2:33 PM - - N/A% 30.33 in 0.8 mi Calm Calm - N/A   Clear
2:36 PM -41.8 °F - N/A% 30.33 in 0.8 mi Calm Calm - N/A   Clear
2:39 PM - - N/A% 30.33 in 3.0 mi Calm Calm - N/A   Clear
2:56 PM -41.8 °F - N/A% 30.34 in 10.0 mi Calm Calm - N/A   Clear
3:16 PM -41.8 °F - N/A% 30.34 in 10.0 mi Calm Calm - N/A   Clear
3:36 PM -41.8 °F - N/A% 30.34 in 0.2 mi Calm Calm - N/A   Scattered Clouds
3:56 PM -41.8 °F - N/A% 30.34 in 0.5 mi Calm Calm - N/A   Scattered Clouds
4:16 PM -43.6 °F - N/A% 30.34 in 0.8 mi Calm Calm - N/A   Partly Cloudy
4:36 PM -43.6 °F - N/A% 30.35 in 0.8 mi Calm Calm - N/A   Partly Cloudy
5:16 PM -45.4 °F - N/A% 30.35 in 0.8 mi Calm Calm - N/A   Partly Cloudy
5:36 PM -45.4 °F - N/A% 30.36 in 1.0 mi Calm Calm - N/A   Partly Cloudy
5:56 PM -45.4 °F - N/A% 30.37 in 1.2 mi Calm Calm - N/A   Partly Cloudy
6:16 PM -45.4 °F - N/A% 30.37 in 1.8 mi Calm Calm - N/A   Scattered Clouds
6:36 PM -45.4 °F - N/A% 30.37 in 2.0 mi Calm Calm - N/A   Scattered Clouds
7:16 PM -45.4 °F - N/A% 30.39 in 1.2 mi Calm Calm - N/A   Scattered Clouds
7:36 PM -45.4 °F - N/A% 30.39 in 2.5 mi Calm Calm - N/A   Clear
7:56 PM -45.4 °F - N/A% 30.39 in 4.0 mi Calm Calm - N/A   Clear
8:36 PM -47.2 °F - N/A% 30.40 in 1.8 mi Calm Calm - N/A   Mostly Cloudy
8:56 PM -47.2 °F - N/A% 30.40 in 2.5 mi Calm Calm - N/A   Clear
9:16 PM -47.2 °F - N/A% 30.41 in 10.0 mi Calm Calm - N/A   Clear
9:36 PM -47.2 °F - N/A% 30.42 in 2.5 mi Calm Calm - N/A   Clear
9:56 PM -47.2 °F - N/A% 30.42 in 2.5 mi Calm Calm - N/A   Clear
10:16 PM -47.2 °F - N/A% 30.42 in 4.0 mi Calm Calm - N/A   Clear
10:36 PM -47.2 °F - N/A% 30.42 in 7.0 mi Calm Calm - N/A   Clear
10:56 PM -47.2 °F - N/A% 30.43 in 5.0 mi Calm Calm - N/A   Clear
11:16 PM -47.2 °F - N/A% 30.44 in 3.0 mi Calm Calm - N/A   Clear
11:36 PM -47.2 °F - N/A% 30.44 in 5.0 mi Calm Calm - N/A   Clear
11:56 PM -47.2 °F - N/A% 30.44 in 5.0 mi Calm Calm - N/A   Clear